FW4672 Weather Reports


Display with metric or nautical units.
time (UTC)temp
F
wind
direction
speed
MPH
gust
MPH
rain 1hr
in
rain 24hr
in
rain mn
in
humidity
%
barometer
mb
20260904001327 74 179 0.0 0.0 0.00 0.00 0.00 70 1030.9
20260904000333 74 192 0.0 0.0 0.00 0.00 0.00 70 1031.0
20260903235329 74 184 0.0 0.0 0.00 0.00 0.00 70 1031.0
20260903234330 75 182 0.0 0.0 0.00 0.00 0.00 70 1031.0
20260903233330 76 183 0.0 0.0 0.00 0.00 0.00 68 1031.0
20260903232428 76 186 0.0 0.0 0.00 0.00 0.00 69 1031.0
20260903231429 76 223 0.0 0.0 0.00 0.00 0.00 69 1031.2
20260903230429 76 194 0.0 0.0 0.00 0.00 0.00 70 1031.2
20260903225527 76 208 0.0 0.0 0.00 0.00 0.00 71 1031.2
20260903224529 75 197 0.0 0.0 0.00 0.00 0.00 73 1031.2
20260903223628 75 186 0.0 0.0 0.00 0.00 0.00 74 1031.4
20260903222630 75 180 0.0 0.0 0.00 0.00 0.00 75 1031.5
20260903221631 75 182 0.0 0.0 0.00 0.00 0.00 76 1031.5
20260903220729 75 184 0.0 0.0 0.00 0.00 0.00 75 1031.6
20260903215730 76 189 0.0 0.0 0.00 0.00 0.00 74 1031.6
20260903214729 76 180 0.0 0.0 0.00 0.00 0.00 75 1031.6
20260903213828 76 174 0.0 0.0 0.00 0.00 0.00 74 1031.6
20260903212927 76 202 0.0 0.0 0.00 0.00 0.00 74 1031.7
20260903211932 76 189 0.0 0.0 0.00 0.00 0.00 74 1031.8
20260903205928 76 176 0.0 0.0 0.00 0.00 0.00 77 1031.8
20260903204927 75 332 0.0 0.0 0.00 0.00 0.00 77 1031.8
20260903204027 76 337 0.0 0.0 0.00 0.00 0.00 78 1031.9
20260903203030 76 232 0.0 0.0 0.00 0.00 0.00 77 1032.0
20260903202127 76 336 0.0 0.0 0.00 0.00 0.00 75 1032.1
20260903201128 76 329 0.0 0.0 0.00 0.00 0.00 74 1032.0
20260903200129 76 335 0.0 0.0 0.00 0.00 0.00 73 1032.0
20260903195129 75 333 0.0 0.0 0.00 0.00 0.00 76 1032.3
20260903194227 75 330 0.0 0.0 0.00 0.00 0.00 77 1032.2
20260903193230 75 323 0.0 0.0 0.00 0.00 0.00 76 1032.4
20260903192329 75 333 0.0 0.0 0.00 0.00 0.00 75 1032.4
20260903191330 75 277 0.0 0.0 0.00 0.00 0.00 76 1032.5
20260903185428 75 327 0.0 0.0 0.00 0.00 0.00 75 1032.8
20260903184430 74 326 0.0 0.0 0.00 0.00 0.00 76 1033.0
20260903183428 74 335 0.0 0.0 0.00 0.00 0.00 74 1033.2
20260903182430 74 210 0.0 0.0 0.00 0.00 0.00 74 1033.2
20260903180427 73 327 0.0 0.0 0.00 0.00 0.00 74 1033.3
20260903174429 72 329 0.0 0.0 0.00 0.00 0.00 76 1033.4
20260903172531 71 327 0.0 0.0 0.00 0.00 0.00 76 1033.2
20260903171629 70 330 0.0 0.0 0.00 0.00 0.00 78 1033.4
20260903170728 70 336 0.0 0.0 0.00 0.00 0.00 78 1033.2
20260903165729 70 336 0.0 0.0 0.00 0.00 0.00 77 1033.4
20260903164730 69 323 0.0 0.0 0.00 0.00 0.00 79 1033.3
20260903163728 69 331 0.0 0.0 0.00 0.00 0.00 79 1033.4
20260903162728 69 334 0.0 0.0 0.00 0.00 0.00 79 1033.5
20260903161730 69 297 0.0 0.0 0.00 0.00 0.00 79 1033.4
20260903160728 69 184 0.0 0.0 0.00 0.00 0.00 79 1033.4
20260903155730 68 360 0.0 0.0 0.00 0.00 0.00 79 1033.6
20260903154829 68 180 0.0 0.0 0.00 0.00 0.00 79 1033.5
20260903153829 67 180 0.0 0.0 0.00 0.00 0.00 79 1033.6
20260903152827 67 180 0.0 0.0 0.00 0.00 0.00 79 1033.6
20260903151829 67 180 0.0 0.0 0.00 0.00 0.00 80 1033.6
20260903143828 64 180 0.0 0.0 0.00 0.00 0.00 84 1033.6
20260903141828 63 180 0.0 0.0 0.00 0.00 0.00 85 1033.5
20260903140829 63 180 0.0 0.0 0.00 0.00 0.00 85 1033.3
20260903135831 62 180 0.0 0.0 0.00 0.00 0.00 86 1033.1
20260903134829 62 180 0.0 0.0 0.00 0.00 0.00 88 1033.0
20260903133829 62 180 0.0 0.0 0.00 0.00 0.00 88 1033.1
20260903132828 62 180 0.0 0.0 0.00 0.00 0.00 89 1033.0
20260903131829 61 180 0.0 0.0 0.00 0.00 0.00 88 1032.9
20260903130830 61 180 0.0 0.0 0.00 0.00 0.00 89 1032.8
20260903124828 61 180 0.0 0.0 0.00 0.00 0.00 89 1032.9
20260903123927 61 180 0.0 0.0 0.00 0.00 0.00 89 1032.8
20260903122027 61 180 0.0 0.0 0.00 0.00 0.00 90 1032.9
20260903121029 62 180 0.0 0.0 0.00 0.00 0.00 90 1032.9
20260903115029 62 180 0.0 0.0 0.00 0.00 0.00 90 1032.8
20260903114031 62 180 0.0 0.0 0.00 0.00 0.00 89 1033.0
20260903112029 63 180 0.0 0.0 0.00 0.00 0.00 89 1032.9
20260903111029 63 180 0.0 0.0 0.00 0.00 0.00 89 1032.9
20260903110028 63 180 0.0 0.0 0.00 0.00 0.00 88 1032.8
20260903105127 63 180 0.0 0.0 0.00 0.00 0.00 88 1032.9
20260903104130 63 180 0.0 0.0 0.00 0.00 0.00 88 1033.0
20260903103129 63 180 0.0 0.0 0.00 0.00 0.00 87 1033.0
20260903102127 63 180 0.0 0.0 0.00 0.00 0.00 89 1033.0
20260903101128 63 180 0.0 0.0 0.00 0.00 0.00 89 1033.3
20260903100128 63 180 0.0 0.0 0.00 0.00 0.00 89 1033.3
20260903095129 63 180 0.0 0.0 0.00 0.00 0.00 88 1033.4
20260903094129 63 45 0.0 0.0 0.00 0.00 0.00 89 1033.4
20260903092227 64 59 0.0 0.0 0.00 0.00 0.00 89 1033.6
20260903091229 64 67 0.0 0.0 0.00 0.00 0.00 89 1033.7
20260903090229 64 63 0.0 0.0 0.00 0.00 0.00 88 1033.5
20260903085229 64 62 0.0 0.0 0.00 0.00 0.00 88 1033.6
20260903084327 64 67 0.0 0.0 0.00 0.00 0.00 88 1033.7
20260903083427 64 67 0.0 0.0 0.00 0.00 0.00 88 1033.7
20260903082430 64 67 0.0 0.0 0.00 0.00 0.00 89 1033.8
20260903081428 64 67 0.0 0.0 0.00 0.00 0.00 89 1033.8
20260903080427 64 65 0.0 0.0 0.00 0.00 0.00 89 1033.7
20260903075430 64 65 0.0 0.0 0.00 0.00 0.00 89 1033.8
20260903074429 64 67 0.0 0.0 0.00 0.00 0.00 89 1034.1
20260903072528 65 67 0.0 0.0 0.00 0.00 0.00 88 1033.9
20260903071528 65 67 0.0 0.0 0.00 0.00 0.00 88 1034.0
20260903070528 65 67 0.0 0.0 0.00 0.00 0.00 88 1033.9
20260903065535 65 67 0.0 0.0 0.00 0.00 0.00 88 1034.0
20260903063535 66 67 0.0 0.0 0.00 0.00 0.00 87 1033.8
20260903061537 66 67 0.0 0.0 0.00 0.00 0.00 87 1034.0
20260903060534 66 66 0.0 0.0 0.00 0.00 0.00 87 1034.0
20260903055537 66 65 0.0 0.0 0.00 0.00 0.00 87 1033.9
20260903054536 66 67 0.0 0.0 0.00 0.00 0.00 87 1034.1
20260903053636 66 67 0.0 0.0 0.00 0.00 0.00 86 1034.1
20260903052635 66 22 0.0 0.0 0.00 0.00 0.00 86 1034.1
20260903051636 66 22 0.0 0.0 0.00 0.00 0.00 86 1034.2
20260903050735 66 22 0.0 0.0 0.00 0.00 0.00 85 1034.2
20260903045735 66 22 0.0 0.0 0.00 0.00 0.00 84 1034.1
20260903044735 66 22 0.0 0.0 0.00 0.00 0.00 83 1034.2
20260903043834 67 22 0.0 0.0 0.00 0.00 0.00 82 1034.0
20260903042837 67 22 0.0 0.0 0.00 0.00 0.00 83 1034.1
20260903041935 68 22 0.0 0.0 0.00 0.00 0.00 83 1034.0
20260903040935 68 22 0.0 0.0 0.00 0.00 0.00 83 1033.9
20260903040035 68 22 0.0 0.0 0.00 0.00 0.00 83 1033.8
20260903034037 67 292 0.0 0.0 0.00 0.00 0.00 84 1033.6
20260903033036 67 292 0.0 0.0 0.00 0.00 0.00 83 1033.5
20260903032036 68 292 0.0 0.0 0.00 0.00 0.00 83 1033.4
20260903031134 68 292 0.0 0.0 0.00 0.00 0.00 82 1033.2
20260903025135 69 292 0.0 0.0 0.00 0.00 0.00 81 1033.1
20260903024136 69 180 0.0 0.0 0.00 0.00 0.00 80 1033.0
20260903023135 69 180 0.0 0.0 0.00 0.00 0.00 78 1033.2
20260903023035 70 180 0.0 0.0 0.00 0.00 0.00 78 1033.0
20260903022034 70 180 0.0 0.0 0.00 0.00 0.00 78 1033.1
20260903021036 70 180 0.0 0.0 0.00 0.00 0.00 77 1033.1
20260903020036 71 228 0.0 0.0 0.00 0.00 0.00 75 1033.0
20260903012134 74 205 0.0 0.0 0.00 0.00 0.00 70 1032.8
20260903010136 74 180 0.0 0.0 0.00 0.00 0.00 69 1032.8
20260903005134 75 178 0.0 0.0 0.00 0.00 0.00 67 1032.8
20260903003134 75 189 0.0 0.0 0.00 0.00 0.00 67 1032.8
20260903002135 75 242 0.0 0.0 0.00 0.00 0.00 66 1032.8